Theta_e
350 354 356 356 357 355 353 351 347 352 353 352 353 354 357 357 357 357 357 358 358 357 357 356 357 357 357 358 356 355 355 354 354 353 351 351 351 350 350 350 350 348 355
351 351 357 357 356 354 352 350 345 343 344 348 352 351 352 355 353 353 354 356 357 356 356 356 356 355 357 356 356 355 355 354 354 353 351 354 352 350 349 351 350 345 352
348 350 353 355 357 354 352 351 349 347 342 344 347 350 349 349 350 351 350 352 354 355 356 356 355 355 355 355 355 354 354 353 353 351 352 351 349 349 348 349 349 348 349
346 349 349 355 356 353 351 351 351 349 343 343 343 347 347 347 346 347 346 345 349 351 352 354 354 354 354 353 353 353 352 352 351 350 345 344 344 349 348 347 347 350 351
346 349 353 356 355 352 351 351 351 348 344 344 343 342 346 345 343 342 340 340 342 345 346 349 352 353 353 354 351 352 351 353 350 349 348 349 346 348 348 347 344 346 349
347 349 354 356 355 351 350 351 350 348 345 343 343 342 340 340 339 338 338 338 338 338 338 339 345 349 352 352 353 351 350 348 351 349 348 347 348 348 348 348 346 345 346
347 348 350 356 354 352 350 350 351 350 347 345 343 343 343 342 342 339 338 341 342 342 339 337 339 342 347 349 351 351 350 348 346 348 347 347 348 348 347 346 346 345 344
346 348 350 355 354 352 351 349 351 350 349 347 346 346 346 343 343 344 344 344 344 344 343 342 340 338 341 345 347 349 350 348 347 346 347 348 347 349 347 346 346 345 343
346 348 351 350 352 352 351 350 351 351 350 351 351 350 348 349 349 348 347 348 348 348 347 345 345 344 342 340 341 344 346 348 347 345 344 344 347 348 349 345 345 346 345
346 347 350 349 349 350 351 350 350 348 347 344 343 343 343 345 345 341 346 346 345 345 345 343 342 341 339 339 340 338 336 340 343 344 342 344 344 347 349 350 346 345 345
342 345 349 348 350 351 346 341 337 333 331 331 330 330 332 334 331 327 327 333 336 337 337 337 337 336 337 334 333 333 334 329 329 332 337 340 340 344 346 349 349 346 345
341 344 348 348 349 346 335 322 316 317 319 320 321 322 321 321 319 319 319 320 322 323 323 326 328 329 336 335 337 337 336 335 332 330 329 334 335 338 344 346 349 348 347
341 342 344 343 342 338 326 323 321 320 318 317 316 316 316 316 316 316 316 316 316 317 316 318 319 321 323 324 328 331 331 332 335 334 331 328 330 332 334 342 346 347 347
335 335 335 335 331 324 321 318 315 314 313 313 313 313 313 313 312 312 312 313 313 313 313 313 313 314 315 316 317 320 323 326 330 332 334 326 327 331 333 333 338 346 347
327 326 325 323 319 317 315 313 312 311 310 311 312 312 311 311 310 311 310 311 311 311 311 310 311 311 312 312 312 312 314 316 320 323 326 325 321 325 329 333 334 336 341
320 317 316 315 315 313 312 312 310 311 311 311 312 311 310 310 309 309 309 309 309 309 309 309 309 309 309 310 310 311 312 312 313 315 317 320 322 320 323 325 329 333 335
314 312 311 312 312 312 311 311 311 310 311 311 311 310 310 310 309 309 308 308 308 308 308 308 308 308 308 308 308 309 310 311 312 313 313 315 317 323 320 319 324 328 334
311 311 311 310 311 311 310 310 310 310 311 311 311 311 309 309 309 309 309 308 308 308 307 307 306 306 306 306 306 307 308 309 310 311 312 313 314 314 320 324 322 326 330
311 310 310 311 309 309 310 310 310 310 310 311 311 311 310 310 309 310 309 308 308 308 307 306 306 305 305 305 305 306 307 307 308 308 309 311 313 315 317 324 320 323 326
310 311 311 310 309 309 310 310 310 310 310 311 311 312 309 311 309 309 309 308 308 307 306 306 304 305 305 305 304 304 307 307 308 308 308 310 312 316 319 318 317 318 317
309 309 310 309 309 309 309 308 309 309 309 310 310 309 309 309 308 308 308 307 307 306 305 305 304 304 303 305 303 303 304 306 307 309 310 310 312 313 315 315 314 315 315
308 309 309 309 309 309 310 311 311 310 311 311 311 309 309 308 307 306 306 306 306 305 305 305 304 303 303 304 300 300 298 301 305 310 310 309 310 311 312 313 313 313 314
308 309 309 309 309 310 310 311 310 310 310 308 309 309 308 306 306 305 306 305 304 304 303 304 304 303 300 303 302 299 296 295 298 302 304 306 306 306 307 307 309 310 310
308 310 309 309 308 309 310 309 309 309 308 310 309 309 307 305 305 305 304 304 304 304 303 303 303 302 301 299 301 301 301 300 295 295 301 302 304 303 305 306 307 308 309
309 309 308 308 307 308 308 310 310 308 309 309 307 305 305 306 306 304 304 303 303 303 303 302 301 301 301 299 299 299 299 299 299 296 294 298 301 303 304 305 306 306 308
307 308 308 307 307 308 309 309 309 308 307 305 304 303 304 304 304 304 303 303 303 302 301 301 301 301 300 300 300 299 298 297 296 296 295 296 297 300 302 303 304 304 306
Wind_Speed
5 7 5 7 7 8 10 8 8 9 11 10 11 12 13 12 14 14 14 14 14 14 13 11 12 11 12 14 14 13 13 13 13 13 13 14 15 16 16 17 14 14 16
8 7 6 7 10 10 9 8 9 9 8 9 10 10 11 12 13 13 13 14 14 14 13 13 12 10 12 12 11 11 12 11 11 9 4 13 13 14 15 16 15 13 14
9 8 9 5 11 9 8 8 8 9 9 8 8 9 10 11 11 12 13 13 14 14 14 13 12 11 11 11 10 10 9 8 8 4 7 8 12 13 14 14 15 14 13
9 7 7 7 10 9 7 7 8 8 8 8 8 8 9 10 10 11 11 12 11 12 13 13 11 11 10 9 8 8 9 6 4 6 6 9 9 11 12 12 13 13 11
9 7 10 7 9 7 7 7 7 7 7 7 8 8 8 8 9 10 10 11 10 10 11 11 11 11 11 10 7 7 9 7 1 4 7 8 6 10 9 10 10 11 12
9 7 11 7 8 6 6 6 7 7 6 6 7 7 7 8 8 9 9 10 10 11 11 11 10 9 11 11 11 8 9 8 10 5 5 5 7 7 7 8 8 9 9
8 8 10 6 7 6 5 4 7 6 6 6 6 6 6 7 7 8 8 8 9 10 10 10 10 9 8 9 10 10 9 9 9 5 4 5 8 4 4 5 6 7 7
9 7 10 9 6 5 5 4 5 7 7 5 5 6 6 5 5 7 7 7 8 8 9 10 10 9 9 9 9 9 9 10 6 5 6 5 7 7 4 3 2 4 5
8 8 7 9 9 6 7 7 8 9 9 11 10 11 10 8 7 8 7 8 9 8 8 10 10 10 9 9 9 9 8 7 8 5 7 4 10 8 10 1 1 0 1
8 7 7 6 7 6 9 11 13 13 13 14 13 11 11 13 14 15 14 15 13 12 12 10 11 10 8 7 8 8 8 9 6 5 4 5 8 10 11 11 4 3 2
7 8 7 6 6 8 9 10 13 14 12 10 10 10 8 7 9 10 14 14 13 13 12 12 12 10 9 3 4 5 9 4 6 5 4 9 9 11 12 13 8 6 4
9 8 7 7 8 8 8 9 8 8 6 7 7 7 6 8 8 7 10 12 12 11 9 10 9 9 8 6 4 4 4 5 4 4 4 9 9 11 13 13 13 8 7
10 7 7 7 6 9 8 5 4 4 5 6 8 7 7 6 5 6 5 6 6 9 7 8 8 7 9 7 6 6 6 6 4 4 4 9 10 10 12 13 12 10 10
10 10 9 9 9 9 6 6 6 5 5 5 6 8 6 4 6 6 5 6 6 6 8 8 6 8 9 9 9 9 9 7 5 5 2 6 10 11 11 12 12 11 11
10 10 10 10 9 9 9 7 6 6 6 6 6 7 5 5 6 5 6 6 6 7 7 7 7 8 8 9 9 10 10 9 9 6 5 1 7 11 11 12 12 13 14
11 11 10 10 9 9 8 8 6 6 6 6 5 6 7 6 6 6 5 6 6 6 7 7 8 8 8 9 10 10 10 10 10 10 7 7 6 8 11 12 13 13 14
10 11 11 10 9 9 10 8 6 5 5 5 5 6 7 6 6 6 5 6 6 6 8 7 8 8 8 8 10 9 9 11 10 11 10 8 8 7 9 12 13 14 14
11 12 11 8 8 9 9 7 6 5 5 4 4 4 5 5 5 5 5 5 6 5 6 7 7 8 8 8 9 9 9 10 12 12 11 9 8 8 7 10 10 14 15
11 12 11 9 9 9 8 6 6 6 4 4 3 3 4 3 3 4 5 5 5 5 6 6 7 8 9 9 10 10 10 10 11 11 14 12 11 10 8 4 5 9 10
10 11 11 9 10 9 7 6 4 4 3 3 2 2 2 1 2 4 4 5 6 6 6 7 9 8 9 9 10 11 10 10 10 11 12 10 10 9 8 7 7 6 4
11 11 12 11 11 8 6 6 5 5 5 4 3 3 3 1 2 4 5 6 7 7 8 8 8 10 9 9 9 10 10 14 9 8 8 8 9 10 10 9 7 7 6
13 13 12 11 10 9 5 4 3 4 4 2 3 4 3 3 4 5 6 7 8 7 9 9 9 8 8 8 8 11 8 9 10 4 6 7 9 8 9 10 11 11 9
14 14 12 12 11 9 8 4 4 2 3 4 4 4 4 4 5 6 7 8 9 8 8 9 9 10 9 9 11 6 7 6 11 11 11 8 11 10 12 14 14 13 14
14 12 12 10 10 9 8 7 9 7 6 3 2 2 4 5 6 6 8 8 9 8 10 9 9 10 10 11 9 9 13 13 11 10 9 11 12 13 15 11 13 13 13
12 10 10 10 10 10 10 9 7 8 5 3 4 5 6 6 7 8 9 10 10 9 10 12 12 12 10 11 11 11 12 12 14 14 15 12 12 12 12 10 11 11 14
8 9 8 10 11 10 9 9 8 8 6 5 4 5 5 6 7 9 10 10 11 11 12 11 13 14 13 13 12 12 12 11 11 13 15 15 15 13 13 13 12 12 12
Wind_Direction
156 128 120 107 112 96 89 79 73 66 56 54 51 51 51 57 55 51 46 49 51 53 55 57 64 64 69 67 67 63 62 60 61 63 69 62 52 48 49 42 31 52 45
134 142 151 133 116 107 95 89 77 69 61 59 54 52 52 46 54 44 42 44 44 47 50 49 55 52 59 68 60 60 60 57 59 49 20 101 62 49 48 42 46 47 50
136 140 154 117 125 109 105 97 84 67 66 61 58 51 55 50 44 45 39 36 40 39 38 42 45 47 47 51 49 44 41 48 56 38 292 83 71 45 48 47 46 49 52
137 142 131 121 117 106 100 92 84 69 69 66 57 51 50 50 44 42 40 38 34 34 30 34 37 37 40 38 36 32 27 28 60 299 33 36 57 51 43 44 43 39 48
136 127 105 130 123 111 107 92 79 72 66 67 61 55 51 46 41 38 37 37 35 32 31 26 25 36 29 23 18 26 26 27 161 280 37 32 28 63 47 34 45 50 38
133 134 118 144 129 116 111 101 95 81 70 66 63 60 55 48 42 40 41 40 37 33 30 28 25 20 24 27 24 24 22 12 288 33 29 66 36 55 49 50 47 43 41
133 128 143 158 136 130 124 124 110 88 77 69 63 57 54 52 53 54 51 43 39 36 34 33 26 25 19 21 24 24 18 355 342 360 345 6 48 24 36 54 47 40 40
136 142 135 142 143 148 125 108 103 87 78 70 67 61 52 44 47 50 46 40 33 31 32 33 28 23 21 21 15 21 21 358 292 322 344 334 50 350 346 61 56 39 31
144 155 148 141 128 114 99 83 81 73 69 65 74 67 54 56 57 40 48 25 24 18 29 30 27 23 18 21 17 9 5 349 309 350 314 308 35 338 323 243 164 301 353
155 159 135 148 139 119 106 79 82 79 71 73 70 69 71 74 61 47 45 46 37 33 33 28 28 21 12 19 20 7 336 281 306 298 298 30 356 328 319 316 228 229 253
160 162 141 139 125 95 97 93 94 84 76 78 78 76 79 63 62 58 48 45 39 38 34 29 25 14 345 122 46 350 288 360 305 307 300 48 339 322 312 310 293 225 238
162 156 158 154 144 131 102 96 94 92 84 73 63 60 63 65 56 58 55 39 37 21 28 20 19 357 341 347 353 251 342 327 297 310 310 21 333 321 312 308 315 246 241
141 137 130 126 127 125 126 128 97 86 85 70 58 65 56 53 46 33 33 25 14 14 9 360 358 5 352 347 336 328 326 324 316 307 16 7 332 318 312 309 300 280 248
140 134 122 116 114 111 110 98 97 87 78 74 59 51 50 50 42 39 32 22 16 8 1 2 353 348 341 337 332 326 323 322 314 314 346 24 338 332 322 309 301 294 263
133 125 121 123 127 121 109 104 95 89 82 79 72 60 50 54 46 40 32 28 22 3 359 352 347 340 334 332 327 323 317 314 309 307 305 82 321 321 320 316 305 292 285
138 130 128 128 128 128 116 108 98 93 88 82 79 70 58 57 46 38 32 27 18 7 354 349 345 340 329 327 323 315 308 304 299 294 292 293 277 286 302 303 302 296 283
143 140 136 135 139 129 116 109 107 107 98 93 89 79 71 54 47 44 31 23 13 4 351 348 342 333 325 322 315 314 308 305 300 294 289 289 288 262 262 289 291 289 287
149 150 143 147 146 133 129 127 118 115 107 105 97 91 79 71 51 44 31 22 4 357 346 344 339 330 325 319 316 314 306 299 294 290 287 284 282 288 277 256 287 284 280
162 154 151 154 151 141 140 137 129 130 127 118 122 115 113 85 49 32 20 11 359 349 341 337 332 327 319 318 310 309 300 295 292 290 284 278 271 275 275 266 264 276 272
168 169 161 161 159 157 152 154 161 165 158 157 147 152 162 107 23 358 359 356 348 339 338 334 328 323 316 312 311 304 296 292 281 276 281 285 277 262 263 276 288 270 251
181 181 178 174 171 167 180 183 190 199 190 198 192 203 217 313 331 340 341 337 338 330 329 321 320 317 314 320 308 311 302 288 288 277 273 278 274 266 261 266 271 274 279
190 192 187 187 182 188 197 204 229 202 213 217 204 222 236 279 309 312 321 322 320 318 315 315 315 309 303 306 308 306 293 307 266 305 284 279 277 272 270 269 273 275 278
200 197 199 198 193 200 210 200 215 208 226 220 213 224 225 272 288 300 308 310 311 309 302 304 300 297 295 295 291 282 298 293 323 294 265 278 290 284 279 277 277 276 276
203 201 208 205 207 210 206 222 228 243 261 254 256 262 262 264 284 292 300 300 299 297 292 294 291 290 289 284 285 273 265 269 280 289 281 288 290 282 277 271 274 276 275
200 204 211 213 216 216 219 228 238 244 255 267 260 262 262 276 289 298 298 299 293 293 291 293 291 285 282 281 277 278 275 272 271 269 278 279 275 274 273 270 270 271 275
205 210 212 218 225 227 227 225 235 253 262 262 260 280 292 300 299 298 299 297 295 292 290 292 289 284 280 276 274 272 268 267 273 275 274 274 274 270 274 273 274 272 269